[[{"header":{"parameterUnit":"m.s-1","parameterCategory":1,"la1":30.2991,"la2":30.254,"lo1":-89.0895,"lo2":-89.0444,"dy":0.0017,"dx":0.0017,"nx":28,"ny":28,"refTime":"2023-09-26T21:00:00:Z","depth":0,"parameterNumber":2,"parameterNumberName":"U-component_of_WINDS"},"data":[0,0,0,0,0,0,0,0,0,0,0,0,0,0,0,0,0,0,0,0,0,0,0,0,0,0,0,0,0,0,0,0,0,0,0,0,0,0,0,0,0,0,0,0,0,0,0,0,0,0,0,0,0,0,0,0,0,0,-4.7516,-4.7516,0,-4.7492,-4.7492,-4.7491,-4.7412,-4.7411,-4.7409,-4.7407,-4.7384,-4.7385,-4.7386,0,0,0,0,0,0,0,0,0,0,0,0,0,-4.7497,-4.7497,-4.7516,-4.7516,-4.7516,-4.7492,-4.7492,-4.7491,-4.7413,-4.7411,-4.7408,-4.7406,-4.7384,-4.7385,-4.7386,0,0,0,0,0,0,0,0,0,0,0,0,0,-4.7492,-4.7498,-4.7516,-4.7474,-4.7469,-4.7492,-4.7492,-4.7491,-4.7413,-4.7411,-4.7408,-4.7405,-4.7383,-4.7385,-4.7386,-4.7449,0,0,-4.7391,-4.7392,0,0,0,0,0,0,0,0,-4.7493,-4.7493,-4.748,-4.7477,-4.7472,-4.7452,-4.7476,-4.7477,-4.7414,-4.7435,-4.7407,-4.7404,-4.7409,-4.7408,-4.741,-4.7448,-4.7447,-4.7391,-4.7392,-4.7393,-4.7393,0,0,0,0,0,0,0,-4.7493,-4.7494,-4.7507,-4.748,-4.7475,-4.7456,-4.7453,-4.7476,-4.7437,-4.7433,-4.7427,-4.7425,-4.7406,-4.7408,-4.7409,-4.7447,-4.7391,-4.7393,-4.7394,-4.7394,-4.7535,-4.7538,0,0,0,0,0,0,-4.7499,-4.7494,-4.7507,-4.7506,-4.7476,-4.7459,-4.7455,-4.7461,-4.7437,-4.743,-4.7427,-4.7421,-4.7407,-4.7407,-4.7407,-4.7479,-4.7393,-4.7394,-4.7395,-4.7532,-4.7536,-4.7539,0,0,0,0,0,0,-4.7499,-4.7501,-4.7508,-4.7499,-4.7498,-4.7462,-4.747,-4.7462,-4.7464,-4.7432,-4.7425,-4.7436,-4.7405,-4.7405,-4.7439,-4.7477,-4.7395,-4.7396,-4.7529,-4.7533,-4.7537,-4.7622,0,0,0,0,0,0,-4.7499,-4.7501,-4.7524,-4.75,-4.7499,-4.754,-4.7472,-4.7464,-4.7467,-4.7459,-4.7439,-4.7433,-4.7403,-4.7437,-4.7441,-4.7477,-4.7398,-4.7525,-4.7531,-4.7536,-4.7616,-4.7629,-4.764,0,0,0,0,0,-4.7498,-4.755,-4.7526,-4.7528,-4.7527,-4.7542,-4.7542,-4.7505,-4.747,-4.7493,-4.7473,-4.7434,-4.7473,-4.7441,-4.7445,-4.7482,-4.7523,-4.7529,-4.7536,-4.761,-4.7626,-4.764,0,0,0,0,0,0,-4.758,-4.7545,-4.7519,-4.7563,-4.7556,-4.7529,-4.7557,-4.7523,-4.7527,-4.7519,-4.7474,-4.7471,-4.7511,-4.75,-4.7466,-4.7542,-4.7491,-4.7499,-4.7547,-4.7562,-4.7574,-4.7575,-4.7399,0,0,0,0,0,-4.7603,-4.7618,-4.7588,-4.763,-4.7628,-4.7593,-4.7599,-4.7571,-4.7562,-4.7559,-4.7541,-4.7535,-4.7545,-4.7553,-4.7561,-4.7614,-4.7609,-4.7642,-4.7654,-4.7664,-4.7671,-4.7698,-4.7713,-4.756,-4.756,-4.7559,0,0,-4.7651,-4.7634,-4.7646,-4.7646,-4.7637,-4.7654,-4.7591,-4.7612,-4.7624,-4.7562,-4.7593,-4.758,-4.757,-4.7614,-4.7632,-4.7606,-4.7712,-4.7672,-4.7681,-4.7682,-4.7706,-4.7721,-4.7734,-4.7564,-4.7563,-4.7562,0,0,-4.7747,-4.7736,-4.777,-4.7763,-4.775,-4.7727,-4.7735,-4.7713,-4.7702,-4.7732,-4.7686,-4.77,-4.772,-4.7714,-4.7714,-4.7809,-4.7773,-4.7813,-4.7876,-4.7903,-4.7915,-4.7925,-4.7959,-4.7972,-4.782,-4.782,-4.782,0,-4.7808,-4.7831,-4.7792,-4.7815,-4.7817,-4.7761,-4.7796,-4.7791,-4.7782,-4.7784,-4.7755,-4.7778,-4.7768,-4.7809,-4.7833,-4.7835,-4.7843,-4.7815,-4.7916,-4.7926,-4.7936,-4.7967,-4.798,-4.7825,-4.7825,-4.7824,-4.7824,0,-4.7907,-4.7925,-4.7954,-4.7946,-4.7951,-4.798,-4.7945,-4.7955,-4.7927,-4.7908,-4.7939,-4.7925,-4.7929,-4.7937,-4.791,-4.7975,-4.7959,-4.7924,-4.7872,-4.7956,-4.7985,-4.7996,-4.7832,-4.783,-4.7829,-4.7828,0,0,-4.8053,-4.8023,-4.8034,-4.803,-4.8013,-4.8026,-4.8053,-4.8056,-4.8065,-4.8062,-4.8083,-4.8102,-4.8069,-4.8069,-4.8042,-4.8066,-4.8142,-4.8027,-4.8026,-4.8049,-4.8212,-4.8238,-4.8253,-4.8119,-4.8121,-4.8122,-4.8213,0,-4.8143,-4.8186,-4.8152,-4.8202,-4.8217,-4.8166,-4.8189,-4.8182,-4.8164,-4.8176,-4.8157,-4.817,-4.8126,-4.8126,-4.8147,-4.8128,-4.8174,-4.8121,-4.8138,-4.8139,-4.8141,-4.8268,-4.8295,-4.8381,-4.8224,-4.8226,-4.8227,0,-4.8254,-4.8255,-4.8306,-4.8286,-4.8291,-4.8313,-4.8313,-4.8325,-4.8315,-4.8301,-4.8302,-4.8268,-4.8294,-4.8244,-4.8279,-4.8244,-4.8249,-4.8241,-4.8244,-4.8243,-4.8188,-4.827,-4.8407,-4.842,-4.8245,-4.8243,-4.8242,0,-4.8354,-4.8368,-4.8401,-4.8399,-4.8376,-4.8393,-4.8384,-4.8372,-4.8377,-4.8378,-4.838,-4.8385,-4.8387,-4.8392,-4.8361,-4.8327,-4.84,-4.8347,-4.8389,-4.839,-4.8406,-4.8405,-4.8545,-4.8411,-4.8411,-4.8411,-4.841,0,-4.8458,-4.8491,-4.8445,-4.8465,-4.8501,-4.8462,-4.8499,-4.8485,-4.8475,-4.8492,-4.8449,-4.8465,-4.8424,-4.8437,-4.8413,-4.8446,-4.8447,-4.8437,-4.843,-4.844,-4.8441,-4.8442,-4.8435,-4.8414,-4.8413,-4.8412,-4.8412,0,-4.8575,-4.8546,-4.8578,-4.8554,-4.8549,-4.8576,-4.8556,-4.8574,-4.8554,-4.8576,-4.8579,-4.8548,-4.8561,-4.8531,-4.854,-4.8524,-4.857,-4.8554,-4.8573,-4.8568,-4.8611,-4.8607,-4.8756,-4.8773,-4.8629,-4.863,-4.8631,0,-4.8643,-4.8667,-4.8646,-4.8654,-4.8648,-4.8661,-4.8665,-4.8628,-4.8634,-4.8626,-4.8645,-4.8655,-4.866,-4.8683,-4.8662,-4.8669,-4.8652,-4.8704,-4.8653,-4.8662,-4.8652,-4.865,-4.8653,-4.8714,-4.8716,-4.8717,-4.8718,0,-4.8766,-4.8751,-4.8758,-4.8761,-4.8767,-4.8768,-4.8765,-4.8774,-4.8735,-4.8744,-4.8757,-4.8761,-4.877,-4.878,-4.8782,-4.8774,-4.874,-4.8735,-4.8745,-4.8755,-4.8764,-4.8759,-4.8601,-4.8731,-4.873,-4.8729,-4.8728,-4.8728,-4.886,-4.8879,-4.8867,-4.8877,-4.8872,-4.887,-4.8886,-4.8868,-4.8878,-4.8881,-4.8859,-4.8877,-4.8868,-4.8867,-4.8862,-4.8876,-4.8852,-4.8867,-4.887,-4.8874,-4.8881,-4.8763,-4.8876,-4.8876,-4.8875,-4.8875,-4.8875,0,-4.898,-4.897,-4.898,-4.8977,-4.8986,-4.8953,-4.8949,-4.8958,-4.8974,-4.8968,-4.8974,-4.8989,-4.8998,-4.8978,-4.8985,-4.8999,-4.8984,-4.9002,-4.9,-4.8999,-4.8902,-4.8892,-4.9015,-4.9015,-4.9015,-4.9015,-4.9015,-4.9015,-4.9044,-4.9074,-4.9057,-4.9085,-4.9075,-4.9091,-4.9092,-4.9091,-4.9086,-4.9104,-4.9111,-4.9098,-4.9087,-4.9092,-4.91,-4.9094,-4.9098,-4.9122,-4.911,-4.902,-4.9006,-4.8993,-4.8984,-4.9123,-4.9123,-4.9206,-4.9207,-4.9207]},{"header":{"parameterUnit":"m.s-1","parameterCategory":1,"la1":30.2991,"la2":30.254,"lo1":-89.0895,"lo2":-89.0444,"dy":0.0017,"dx":0.0017,"nx":28,"ny":28,"refTime":"2023-09-26T21:00:00:Z","depth":0,"parameterNumber":3,"parameterNumberName":"V-component_of_WINDS"},"data":[0,0,0,0,0,0,0,0,0,0,0,0,0,0,0,0,0,0,0,0,0,0,0,0,0,0,0,0,0,0,0,0,0,0,0,0,0,0,0,0,0,0,0,0,0,0,0,0,0,0,0,0,0,0,0,0,0,0,-2.8577,-2.8577,0,-2.8583,-2.8583,-2.8583,-2.8541,-2.854,-2.8539,-2.8538,-2.8544,-2.8545,-2.8546,0,0,0,0,0,0,0,0,0,0,0,0,0,-2.8528,-2.8529,-2.8577,-2.8577,-2.8577,-2.8583,-2.8583,-2.8583,-2.8542,-2.854,-2.8539,-2.8537,-2.8543,-2.8545,-2.8546,0,0,0,0,0,0,0,0,0,0,0,0,0,-2.8543,-2.853,-2.8577,-2.8557,-2.8555,-2.8583,-2.8583,-2.8583,-2.8542,-2.854,-2.8538,-2.8537,-2.8543,-2.8545,-2.8546,-2.8593,0,0,-2.8552,-2.8553,0,0,0,0,0,0,0,0,-2.8543,-2.8545,-2.856,-2.8558,-2.8557,-2.856,-2.8568,-2.8587,-2.8542,-2.8547,-2.8538,-2.8536,-2.855,-2.8551,-2.8556,-2.8594,-2.8594,-2.8552,-2.8553,-2.8554,-2.8555,0,0,0,0,0,0,0,-2.8542,-2.8545,-2.8579,-2.856,-2.8558,-2.8547,-2.8548,-2.8571,-2.8558,-2.8546,-2.8543,-2.8545,-2.8549,-2.8555,-2.8556,-2.8594,-2.8552,-2.8554,-2.8555,-2.8556,-2.867,-2.8672,0,0,0,0,0,0,-2.8543,-2.8544,-2.8579,-2.8579,-2.8545,-2.855,-2.855,-2.856,-2.8558,-2.8556,-2.8546,-2.8543,-2.8552,-2.8554,-2.8556,-2.8612,-2.8554,-2.8556,-2.8557,-2.8668,-2.867,-2.8672,0,0,0,0,0,0,-2.8542,-2.8547,-2.8579,-2.8561,-2.8564,-2.8553,-2.8565,-2.8561,-2.8567,-2.8558,-2.8555,-2.8555,-2.8551,-2.8554,-2.8584,-2.8611,-2.8557,-2.8558,-2.8666,-2.8669,-2.8671,-2.8722,0,0,0,0,0,0,-2.8541,-2.8547,-2.8565,-2.8562,-2.8565,-2.8607,-2.8566,-2.8563,-2.8571,-2.8566,-2.8565,-2.8563,-2.855,-2.8582,-2.8586,-2.8613,-2.856,-2.8663,-2.8667,-2.867,-2.8718,-2.8727,-2.8734,0,0,0,0,0,-2.854,-2.8579,-2.8566,-2.857,-2.8588,-2.8609,-2.8611,-2.8595,-2.8573,-2.8591,-2.8585,-2.8563,-2.8607,-2.8585,-2.859,-2.8617,-2.8662,-2.8666,-2.867,-2.8715,-2.8725,-2.8734,0,0,0,0,0,0,-2.8585,-2.8578,-2.8564,-2.8603,-2.8607,-2.8602,-2.8624,-2.8606,-2.8617,-2.8612,-2.8592,-2.8592,-2.8626,-2.8624,-2.86,-2.8663,-2.863,-2.8636,-2.8663,-2.8672,-2.868,-2.868,-2.8562,0,0,0,0,0,-2.86,-2.8618,-2.861,-2.8646,-2.8649,-2.8636,-2.8645,-2.8632,-2.8635,-2.8637,-2.8633,-2.8637,-2.8651,-2.8662,-2.8674,-2.8717,-2.8717,-2.8738,-2.8746,-2.8752,-2.8758,-2.8781,-2.879,-2.8686,-2.8686,-2.8686,0,0,-2.863,-2.8628,-2.8641,-2.8655,-2.8657,-2.8676,-2.8638,-2.866,-2.8674,-2.864,-2.8669,-2.8666,-2.8669,-2.8706,-2.8723,-2.8706,-2.8786,-2.8758,-2.8763,-2.8765,-2.8786,-2.8796,-2.8805,-2.8689,-2.8689,-2.8688,0,0,-2.8696,-2.8696,-2.8726,-2.8728,-2.8731,-2.8722,-2.8729,-2.8727,-2.8724,-2.8753,-2.8728,-2.8744,-2.877,-2.8773,-2.8778,-2.8844,-2.8825,-2.8849,-2.889,-2.8912,-2.8921,-2.8928,-2.8952,-2.8961,-2.8854,-2.8854,-2.8854,0,-2.8733,-2.8761,-2.8743,-2.8767,-2.8774,-2.8744,-2.8774,-2.8777,-2.8784,-2.8789,-2.8771,-2.8802,-2.8802,-2.884,-2.8856,-2.8861,-2.8868,-2.8849,-2.8921,-2.8928,-2.8934,-2.8957,-2.8966,-2.8857,-2.8856,-2.8856,-2.8856,0,-2.8808,-2.8827,-2.8851,-2.8859,-2.8868,-2.8895,-2.8881,-2.8892,-2.8878,-2.8872,-2.8901,-2.89,-2.8912,-2.892,-2.8907,-2.8956,-2.8946,-2.8924,-2.8892,-2.8948,-2.8969,-2.8977,-2.8861,-2.886,-2.8859,-2.8858,0,0,-2.8903,-2.89,-2.8909,-2.8913,-2.8913,-2.8928,-2.8953,-2.8965,-2.8976,-2.8981,-2.9002,-2.9024,-2.9005,-2.901,-2.8997,-2.9017,-2.907,-2.8993,-2.8992,-2.9008,-2.9125,-2.9142,-2.9152,-2.9057,-2.9058,-2.9059,-2.9125,0,-2.8968,-2.9011,-2.8995,-2.904,-2.9058,-2.903,-2.9051,-2.9054,-2.9048,-2.9063,-2.9056,-2.9072,-2.9044,-2.9048,-2.9066,-2.906,-2.9093,-2.9055,-2.9076,-2.9077,-2.9078,-2.9163,-2.9181,-2.9243,-2.9133,-2.9134,-2.9135,0,-2.905,-2.9059,-2.9105,-2.9103,-2.911,-2.913,-2.914,-2.9154,-2.9156,-2.915,-2.9157,-2.9139,-2.9163,-2.913,-2.9163,-2.9137,-2.9145,-2.9143,-2.9145,-2.9147,-2.9111,-2.9169,-2.9263,-2.9273,-2.9148,-2.9147,-2.9146,0,-2.9116,-2.9139,-2.917,-2.9174,-2.9172,-2.9186,-2.9186,-2.9187,-2.9195,-2.9203,-2.9209,-2.922,-2.9226,-2.9235,-2.922,-2.9197,-2.9256,-2.9221,-2.9253,-2.9253,-2.9267,-2.9267,-2.9365,-2.927,-2.927,-2.927,-2.927,0,-2.9191,-2.922,-2.92,-2.922,-2.9252,-2.9233,-2.9265,-2.9262,-2.9262,-2.928,-2.9255,-2.9273,-2.9252,-2.9267,-2.9256,-2.9286,-2.9289,-2.9285,-2.9282,-2.9288,-2.9289,-2.9294,-2.9289,-2.9273,-2.9272,-2.9272,-2.9271,0,-2.9271,-2.9258,-2.929,-2.9285,-2.9285,-2.9309,-2.9305,-2.9322,-2.9314,-2.9337,-2.9341,-2.9329,-2.9345,-2.9332,-2.9348,-2.934,-2.938,-2.937,-2.9379,-2.9377,-2.941,-2.9407,-2.9515,-2.9528,-2.9425,-2.9426,-2.9426,0,-2.932,-2.9342,-2.934,-2.935,-2.9351,-2.9368,-2.9376,-2.9358,-2.9368,-2.9372,-2.9389,-2.9403,-2.9414,-2.9442,-2.9435,-2.9447,-2.9438,-2.9474,-2.9439,-2.9445,-2.9439,-2.9439,-2.9441,-2.9482,-2.9483,-2.9484,-2.9485,0,-2.9409,-2.9402,-2.9415,-2.9426,-2.9437,-2.9444,-2.945,-2.946,-2.9441,-2.9453,-2.947,-2.9479,-2.9495,-2.951,-2.9519,-2.9519,-2.9499,-2.9496,-2.9504,-2.9511,-2.9516,-2.9515,-2.94,-2.9494,-2.9493,-2.9492,-2.9492,-2.9492,-2.9476,-2.9494,-2.9495,-2.9511,-2.9513,-2.9519,-2.9536,-2.953,-2.9543,-2.9555,-2.9543,-2.9564,-2.9565,-2.9576,-2.9578,-2.9593,-2.9578,-2.959,-2.9593,-2.9596,-2.9601,-2.9513,-2.9595,-2.9595,-2.9594,-2.9594,-2.9594,0,-2.9564,-2.9563,-2.9578,-2.9587,-2.9599,-2.9579,-2.9584,-2.9596,-2.9614,-2.9617,-2.9628,-2.9648,-2.9662,-2.9655,-2.9667,-2.9681,-2.9673,-2.9685,-2.9685,-2.9685,-2.9614,-2.9606,-2.9692,-2.9692,-2.9692,-2.9692,-2.9692,-2.9692,-2.9612,-2.9642,-2.9635,-2.9667,-2.9665,-2.9685,-2.969,-2.9696,-2.9698,-2.9721,-2.9732,-2.9728,-2.9727,-2.9739,-2.9751,-2.9749,-2.9755,-2.9771,-2.9765,-2.9699,-2.969,-2.9681,-2.9673,-2.9772,-2.9772,-2.9835,-2.9836,-2.9836]}]]